START_TIME,STEP,MOV.,M35,t_acc.,PL05,t_acc.,PL06,t_acc.,PL07,t_acc.
1979-07-15 12:00:24.120 ,0,0,0.,4.8,12.,4.8,3.,4.8,0.,4.8
1979-07-15 12:00:28.920 ,0,0,0.,4.8,6.,4.8,5.,4.8,5.,4.8
1979-07-15 12:00:33.720 ,0,0,0.,4.8,10.,4.8,4.,4.8,5.,4.8
1979-07-15 12:00:38.520 ,0,0,0.,4.8,9.,4.8,0.,4.8,2.,4.8
1979-07-15 12:00:43.320 ,0,0,0.,4.8,11.,4.8,2.,4.8,7.,4.8
1979-07-15 12:00:48.120 ,1,0,0.,4.8,12.,4.8,0.,4.8,2.,4.8
1979-07-15 12:00:52.920 ,1,0,0.,4.8,17.,4.8,3.,4.8,2.,4.8
1979-07-15 12:00:57.720 ,1,0,0.,4.8,11.,4.8,2.,4.8,3.,4.8
1979-07-15 12:01:02.520 ,1,0,0.,4.8,8.,4.8,2.,4.8,2.,4.8
1979-07-15 12:01:07.320 ,1,0,0.,4.8,11.,4.8,2.,4.8,3.,4.8
1979-07-15 12:01:12.120 ,1,0,0.,4.8,11.,4.8,3.,4.8,1.,4.8
1979-07-15 12:01:16.920 ,1,0,0.,4.8,13.,4.8,2.,4.8,4.,4.8
1979-07-15 12:01:21.720 ,1,0,0.,4.8,12.,4.8,1.,4.8,3.,4.8
1979-07-15 12:01:26.520 ,1,0,0.,4.8,8.,4.8,2.,4.8,3.,4.8
1979-07-15 12:01:31.320 ,1,0,0.,4.8,8.,4.8,2.,4.8,3.,4.8
1979-07-15 12:01:36.120 ,2,0,0.,4.8,6.,4.8,3.,4.8,2.,4.8
1979-07-15 12:01:40.920 ,2,0,0.,4.8,10.,4.8,3.,4.8,0.,4.8
1979-07-15 12:01:45.720 ,2,0,0.,4.8,8.,4.8,4.,4.8,6.,4.8
1979-07-15 12:01:50.520 ,2,0,0.,4.8,10.,4.8,4.,4.8,6.,4.8
1979-07-15 12:01:55.320 ,2,0,0.,4.8,7.,4.8,2.,4.8,3.,4.8
1979-07-15 12:02:00.120 ,2,0,0.,4.8,11.,4.8,1.,4.8,3.,4.8
1979-07-15 12:02:04.920 ,2,0,0.,4.8,12.,4.8,5.,4.8,4.,4.8
1979-07-15 12:02:09.720 ,2,0,0.,4.8,13.,4.8,2.,4.8,6.,4.8
1979-07-15 12:02:14.520 ,2,0,0.,4.8,6.,4.8,4.,4.8,3.,4.8
1979-07-15 12:02:19.320 ,2,0,0.,4.8,5.,4.8,6.,4.8,3.,4.8
1979-07-15 12:02:24.120 ,3,0,0.,4.8,4.,4.8,2.,4.8,1.,4.8
1979-07-15 12:02:28.920 ,3,0,0.,4.8,16.,4.8,5.,4.8,4.,4.8
1979-07-15 12:02:33.720 ,3,0,0.,4.8,7.,4.8,6.,4.8,4.,4.8
1979-07-15 12:02:38.520 ,3,0,0.,4.8,14.,4.8,1.,4.8,4.,4.8
1979-07-15 12:02:43.320 ,3,0,0.,4.8,14.,4.8,0.,4.8,2.,4.8
1979-07-15 12:02:48.120 ,3,0,0.,4.8,9.,4.8,3.,4.8,4.,4.8
1979-07-15 12:02:52.920 ,3,0,0.,4.8,9.,4.8,3.,4.8,3.,4.8
1979-07-15 12:02:57.720 ,3,0,0.,4.8,12.,4.8,4.,4.8,1.,4.8
1979-07-15 12:03:02.520 ,3,0,0.,4.8,17.,4.8,2.,4.8,4.,4.8
1979-07-15 12:03:07.320 ,3,0,0.,4.8,8.,4.8,1.,4.8,2.,4.8
1979-07-15 12:03:12.120 ,4,0,0.,4.8,13.,4.8,1.,4.8,6.,4.8
1979-07-15 12:03:16.920 ,4,0,0.,4.8,15.,4.8,2.,4.8,2.,4.8
1979-07-15 12:03:21.720 ,4,0,0.,4.8,11.,4.8,3.,4.8,2.,4.8
1979-07-15 12:03:26.520 ,4,0,0.,4.8,13.,4.8,1.,4.8,0.,4.8
1979-07-15 12:03:31.320 ,4,0,0.,4.8,15.,4.8,0.,4.8,3.,4.8
1979-07-15 12:03:36.120 ,4,0,0.,4.8,9.,4.8,2.,4.8,5.,4.8
1979-07-15 12:03:40.920 ,4,0,0.,4.8,11.,4.8,2.,4.8,5.,4.8
1979-07-15 12:03:45.720 ,4,0,0.,4.8,11.,4.8,3.,4.8,2.,4.8
1979-07-15 12:03:50.520 ,4,0,0.,4.8,10.,4.8,2.,4.8,3.,4.8
1979-07-15 12:03:55.320 ,4,0,0.,4.8,12.,4.8,2.,4.8,1.,4.8
1979-07-15 12:04:00.120 ,5,0,0.,4.8,8.,4.8,7.,4.8,1.,4.8
1979-07-15 12:04:04.920 ,5,0,0.,4.8,14.,4.8,3.,4.8,1.,4.8
1979-07-15 12:04:09.720 ,5,0,0.,4.8,6.,4.8,2.,4.8,5.,4.8
1979-07-15 12:04:14.520 ,5,0,0.,4.8,10.,4.8,1.,4.8,1.,4.8
1979-07-15 12:04:19.320 ,5,0,0.,4.8,7.,4.8,4.,4.8,4.,4.8
1979-07-15 12:04:24.120 ,5,0,0.,4.8,13.,4.8,4.,4.8,3.,4.8
1979-07-15 12:04:28.920 ,5,0,0.,4.8,20.,4.8,4.,4.8,5.,4.8
1979-07-15 12:04:33.720 ,5,0,0.,4.8,15.,4.8,4.,4.8,3.,4.8
1979-07-15 12:04:38.520 ,5,0,0.,4.8,6.,4.8,4.,4.8,0.,4.8
1979-07-15 12:04:43.320 ,5,0,0.,4.8,11.,4.8,1.,4.8,2.,4.8
1979-07-15 12:04:48.120 ,6,0,0.,4.8,16.,4.8,4.,4.8,3.,4.8
1979-07-15 12:04:52.920 ,6,0,0.,4.8,10.,4.8,6.,4.8,6.,4.8
1979-07-15 12:04:57.720 ,6,0,0.,4.8,9.,4.8,4.,4.8,2.,4.8
1979-07-15 12:05:02.520 ,6,0,0.,4.8,7.,4.8,3.,4.8,3.,4.8
1979-07-15 12:05:07.320 ,6,0,0.,4.8,14.,4.8,6.,4.8,0.,4.8
1979-07-15 12:05:12.120 ,6,0,0.,4.8,8.,4.8,1.,4.8,0.,4.8
1979-07-15 12:05:16.920 ,6,0,0.,4.8,12.,4.8,3.,4.8,5.,4.8
1979-07-15 12:05:21.720 ,6,0,0.,4.8,9.,4.8,4.,4.8,0.,4.8
1979-07-15 12:05:26.520 ,6,0,0.,4.8,7.,4.8,3.,4.8,4.,4.8
1979-07-15 12:05:31.320 ,6,0,0.,4.8,9.,4.8,4.,4.8,6.,4.8
1979-07-15 12:05:36.120 ,7,0,0.,4.8,13.,4.8,3.,4.8,7.,4.8
1979-07-15 12:05:40.920 ,7,0,0.,4.8,10.,4.8,1.,4.8,0.,4.8
1979-07-15 12:05:45.720 ,7,0,0.,4.8,0.,4.8,0.,4.8,0.,4.8
1979-07-15 12:05:50.520 ,7,0,0.,4.8,0.,4.8,0.,4.8,0.,4.8
1979-07-15 12:05:55.320 ,7,0,0.,4.8,1.,4.8,0.,4.8,1.,4.8
1979-07-15 12:06:00.120 ,7,0,0.,4.8,0.,4.8,0.,4.8,0.,4.8
1979-07-15 12:06:04.920 ,7,0,0.,4.8,0.,4.8,0.,4.8,0.,4.8
1979-07-15 12:06:09.720 ,7,0,0.,4.8,0.,4.8,0.,4.8,0.,4.8
1979-07-15 12:06:14.520 ,7,0,0.,4.8,0.,4.8,0.,4.8,0.,4.8
1979-07-15 12:06:19.320 ,7,0,0.,4.8,0.,4.8,0.,4.8,0.,4.8
1979-07-15 12:06:24.120 ,7,0,0.,4.8,0.,4.8,0.,4.8,0.,4.8
1979-07-15 12:06:28.920 ,7,0,0.,4.8,0.,4.8,0.,4.8,0.,4.8
1979-07-15 12:06:33.720 ,7,0,0.,4.8,1.,4.8,0.,4.8,0.,4.8
1979-07-15 12:06:38.520 ,7,0,0.,4.8,0.,4.8,0.,4.8,0.,4.8
1979-07-15 12:06:43.320 ,7,0,0.,4.8,0.,4.8,0.,4.8,0.,4.8
1979-07-15 12:06:48.120 ,7,0,0.,4.8,0.,4.8,0.,4.8,0.,4.8
1979-07-15 12:06:52.920 ,7,0,0.,4.8,0.,4.8,0.,4.8,1.,4.8
1979-07-15 12:06:57.720 ,7,0,0.,4.8,0.,4.8,1.,4.8,0.,4.8
1979-07-15 12:07:02.520 ,7,0,0.,4.8,0.,4.8,0.,4.8,0.,4.8
1979-07-15 12:07:07.320 ,7,0,0.,4.8,1.,4.8,0.,4.8,0.,4.8
1979-07-15 12:07:12.120 ,6,0,0.,4.8,1.,4.8,0.,4.8,0.,4.8
1979-07-15 12:07:16.920 ,6,0,0.,4.8,0.,4.8,0.,4.8,0.,4.8
1979-07-15 12:07:21.720 ,6,0,0.,4.8,11.,4.8,1.,4.8,2.,4.8
1979-07-15 12:07:26.520 ,6,0,0.,4.8,7.,4.8,2.,4.8,2.,4.8
1979-07-15 12:07:31.320 ,6,0,0.,4.8,9.,4.8,3.,4.8,3.,4.8
1979-07-15 12:07:36.120 ,6,0,0.,4.8,4.,4.8,3.,4.8,3.,4.8
1979-07-15 12:07:40.920 ,6,0,0.,4.8,6.,4.8,2.,4.8,2.,4.8
1979-07-15 12:07:45.720 ,6,0,0.,4.8,6.,4.8,1.,4.8,1.,4.8
1979-07-15 12:07:50.520 ,6,0,0.,4.8,6.,4.8,1.,4.8,3.,4.8
1979-07-15 12:07:55.320 ,6,0,0.,4.8,7.,4.8,3.,4.8,3.,4.8
1979-07-15 12:07:36.120 ,6,0,0.,4.8,4.,4.8,3.,4.8,3.,4.8
1979-07-15 12:07:40.920 ,6,0,0.,4.8,6.,4.8,2.,4.8,2.,4.8
1979-07-15 12:07:45.720 ,6,0,0.,4.8,6.,4.8,1.,4.8,1.,4.8
1979-07-15 12:07:50.520 ,6,0,0.,4.8,6.,4.8,1.,4.8,3.,4.8
1979-07-15 12:07:55.320 ,6,0,0.,4.8,7.,4.8,3.,4.8,3.,4.8
1979-07-15 12:08:00.120 ,5,0,0.,4.8,6.,4.8,3.,4.8,3.,4.8
1979-07-15 12:08:04.920 ,5,0,0.,4.8,9.,4.8,2.,4.8,3.,4.8
1979-07-15 12:08:09.720 ,5,0,0.,4.8,2.,4.8,3.,4.8,3.,4.8
1979-07-15 12:08:14.520 ,5,0,0.,4.8,10.,4.8,1.,4.8,0.,4.8
1979-07-15 12:08:19.320 ,5,0,0.,4.8,5.,4.8,1.,4.8,3.,4.8
1979-07-15 12:08:24.120 ,5,0,0.,4.8,7.,4.8,1.,4.8,3.,4.8
1979-07-15 12:08:28.920 ,5,0,0.,4.8,5.,4.8,2.,4.8,5.,4.8
1979-07-15 12:08:33.720 ,5,0,0.,4.8,16.,4.8,7.,4.8,2.,4.8
1979-07-15 12:08:38.520 ,5,0,0.,4.8,8.,4.8,2.,4.8,5.,4.8
1979-07-15 12:08:43.320 ,5,0,0.,4.8,15.,4.8,4.,4.8,5.,4.8
1979-07-15 12:08:48.120 ,4,0,0.,4.8,13.,4.8,2.,4.8,1.,4.8
1979-07-15 12:08:52.920 ,4,0,0.,4.8,9.,4.8,5.,4.8,4.,4.8
1979-07-15 12:08:57.720 ,4,0,0.,4.8,13.,4.8,2.,4.8,2.,4.8
1979-07-15 12:09:02.520 ,4,0,1.,4.8,10.,4.8,3.,4.8,4.,4.8
1979-07-15 12:09:07.320 ,4,0,0.,4.8,15.,4.8,2.,4.8,3.,4.8
1979-07-15 12:09:12.120 ,4,0,0.,4.8,6.,4.8,5.,4.8,4.,4.8
1979-07-15 12:09:16.920 ,4,0,0.,4.8,5.,4.8,2.,4.8,2.,4.8
1979-07-15 12:09:21.720 ,4,0,0.,4.8,10.,4.8,1.,4.8,0.,4.8
1979-07-15 12:09:26.520 ,4,0,0.,4.8,8.,4.8,1.,4.8,1.,4.8
1979-07-15 12:09:31.320 ,4,0,0.,4.8,6.,4.8,7.,4.8,5.,4.8
1979-07-15 12:09:36.120 ,3,0,0.,4.8,9.,4.8,3.,4.8,5.,4.8
1979-07-15 12:09:40.920 ,3,0,0.,4.8,12.,4.8,2.,4.8,2.,4.8
1979-07-15 12:09:45.720 ,3,0,0.,4.8,11.,4.8,4.,4.8,1.,4.8
1979-07-15 12:09:50.520 ,3,0,0.,4.8,8.,4.8,1.,4.8,1.,4.8
1979-07-15 12:09:55.320 ,3,0,0.,4.8,8.,4.8,5.,4.8,1.,4.8
1979-07-15 12:10:00.120 ,3,0,0.,4.8,9.,4.8,3.,4.8,2.,4.8
1979-07-15 12:10:04.920 ,3,0,0.,4.8,9.,4.8,1.,4.8,7.,4.8
1979-07-15 12:10:09.720 ,3,0,0.,4.8,7.,4.8,3.,4.8,5.,4.8
1979-07-15 12:10:14.520 ,3,0,0.,4.8,12.,4.8,3.,4.8,3.,4.8
1979-07-15 12:10:19.320 ,3,0,0.,4.8,6.,4.8,1.,4.8,1.,4.8
1979-07-15 12:10:24.120 ,2,0,0.,4.8,5.,4.8,2.,4.8,1.,4.8
1979-07-15 12:10:28.920 ,2,0,0.,4.8,11.,4.8,1.,4.8,6.,4.8
1979-07-15 12:10:33.720 ,2,0,0.,4.8,5.,4.8,0.,4.8,2.,4.8
1979-07-15 12:10:38.520 ,2,0,0.,4.8,8.,4.8,3.,4.8,2.,4.8
1979-07-15 12:10:43.320 ,2,0,0.,4.8,11.,4.8,2.,4.8,0.,4.8
1979-07-15 12:10:48.120 ,2,0,0.,4.8,10.,4.8,3.,4.8,1.,4.8
1979-07-15 12:10:52.920 ,2,0,0.,4.8,8.,4.8,2.,4.8,2.,4.8
1979-07-15 12:10:57.720 ,2,0,0.,4.8,2.,4.8,1.,4.8,2.,4.8
1979-07-15 12:11:02.520 ,2,0,0.,4.8,7.,4.8,1.,4.8,1.,4.8
1979-07-15 12:11:07.320 ,2,0,0.,4.8,9.,4.8,3.,4.8,1.,4.8
1979-07-15 12:11:12.120 ,1,0,0.,4.8,9.,4.8,4.,4.8,2.,4.8
1979-07-15 12:11:16.920 ,1,0,0.,4.8,7.,4.8,1.,4.8,2.,4.8
1979-07-15 12:11:21.720 ,1,0,0.,4.8,8.,4.8,0.,4.8,7.,4.8
1979-07-15 12:11:26.520 ,1,0,0.,4.8,5.,4.8,1.,4.8,4.,4.8
1979-07-15 12:11:31.320 ,1,0,0.,4.8,9.,4.8,0.,4.8,2.,4.8
1979-07-15 12:11:36.120 ,1,0,0.,4.8,13.,4.8,1.,4.8,1.,4.8
1979-07-15 12:11:40.920 ,1,0,0.,4.8,4.,4.8,1.,4.8,5.,4.8
1979-07-15 12:11:45.720 ,1,0,0.,4.8,4.,4.8,0.,4.8,2.,4.8
1979-07-15 12:11:50.520 ,1,0,0.,4.8,7.,4.8,4.,4.8,6.,4.8
1979-07-15 12:11:55.320 ,1,0,0.,4.8,8.,4.8,3.,4.8,4.,4.8
1979-07-15 12:12:00.120 ,0,0,0.,4.8,6.,4.8,2.,4.8,2.,4.8
1979-07-15 12:12:04.920 ,0,0,0.,4.8,7.,4.8,2.,4.8,6.,4.8
1979-07-15 12:12:09.720 ,0,0,0.,4.8,9.,4.8,3.,4.8,0.,4.8
1979-07-15 12:12:14.520 ,0,0,0.,4.8,10.,4.8,4.,4.8,0.,4.8
1979-07-15 12:12:19.320 ,0,0,0.,4.8,5.,4.8,2.,4.8,1.,4.8
1979-07-15 12:12:24.120 ,0,0,0.,4.8,2.,4.8,2.,4.8,1.,4.8
1979-07-15 12:12:28.920 ,0,0,0.,4.8,9.,4.8,0.,4.8,6.,4.8
1979-07-15 12:12:33.720 ,0,0,0.,4.8,7.,4.8,0.,4.8,2.,4.8
1979-07-15 12:12:38.520 ,0,0,0.,4.8,7.,4.8,2.,4.8,1.,4.8
1979-07-15 12:12:43.320 ,0,0,0.,4.8,8.,4.8,6.,4.8,3.,4.8
1979-07-15 12:12:48.120 ,0,0,0.,4.8,7.,4.8,1.,4.8,0.,4.8
1979-07-15 12:12:52.920 ,0,0,0.,4.8,2.,4.8,2.,4.8,1.,4.8
1979-07-15 12:12:57.720 ,0,0,0.,4.8,10.,4.8,6.,4.8,3.,4.8
1979-07-15 12:13:02.520 ,0,0,0.,4.8,6.,4.8,0.,4.8,2.,4.8
1979-07-15 12:13:07.320 ,0,0,0.,4.8,4.,4.8,4.,4.8,1.,4.8
1979-07-15 12:13:12.120 ,0,0,0.,4.8,9.,4.8,0.,4.8,4.,4.8
1979-07-15 12:13:16.920 ,0,0,0.,4.8,3.,4.8,0.,4.8,2.,4.8
1979-07-15 12:13:21.720 ,0,0,0.,4.8,4.,4.8,0.,4.8,0.,4.8
1979-07-15 12:13:26.520 ,0,0,0.,4.8,6.,4.8,0.,4.8,2.,4.8
1979-07-15 12:13:31.320 ,0,0,0.,4.8,8.,4.8,1.,4.8,4.,4.8
1979-07-15 12:13:36.120 ,1,0,0.,4.8,4.,4.8,0.,4.8,5.,4.8
1979-07-15 12:13:40.920 ,1,0,0.,4.8,8.,4.8,3.,4.8,1.,4.8
1979-07-15 12:13:45.720 ,1,0,0.,4.8,1.,4.8,2.,4.8,3.,4.8
1979-07-15 12:13:50.520 ,1,0,0.,4.8,5.,4.8,1.,4.8,1.,4.8
1979-07-15 12:13:55.320 ,1,0,0.,4.8,6.,4.8,1.,4.8,2.,4.8
1979-07-15 12:14:00.120 ,1,0,0.,4.8,5.,4.8,2.,4.8,1.,4.8
1979-07-15 12:14:04.920 ,1,0,0.,4.8,9.,4.8,2.,4.8,3.,4.8
1979-07-15 12:14:09.720 ,1,0,0.,4.8,8.,4.8,1.,4.8,1.,4.8
1979-07-15 12:14:14.520 ,1,0,0.,4.8,7.,4.8,2.,4.8,0.,4.8
1979-07-15 12:14:19.320 ,1,0,0.,4.8,8.,4.8,2.,4.8,2.,4.8
1979-07-15 12:14:24.120 ,2,0,0.,4.8,5.,4.8,2.,4.8,2.,4.8
1979-07-15 12:14:28.920 ,2,0,0.,4.8,10.,4.8,3.,4.8,2.,4.8
1979-07-15 12:14:33.720 ,2,0,0.,4.8,7.,4.8,0.,4.8,2.,4.8
1979-07-15 12:14:38.520 ,2,0,0.,4.8,9.,4.8,1.,4.8,3.,4.8
1979-07-15 12:14:43.320 ,2,0,0.,4.8,9.,4.8,0.,4.8,3.,4.8
1979-07-15 12:14:48.120 ,2,0,0.,4.8,9.,4.8,4.,4.8,7.,4.8
1979-07-15 12:14:52.920 ,2,0,0.,4.8,7.,4.8,4.,4.8,2.,4.8
1979-07-15 12:14:57.720 ,2,0,1.,4.8,5.,4.8,5.,4.8,2.,4.8
1979-07-15 12:15:02.520 ,2,0,0.,4.8,5.,4.8,1.,4.8,2.,4.8
1979-07-15 12:15:07.320 ,2,0,0.,4.8,5.,4.8,3.,4.8,2.,4.8
1979-07-15 12:15:12.120 ,3,0,0.,4.8,5.,4.8,4.,4.8,3.,4.8
1979-07-15 12:15:16.920 ,3,0,0.,4.8,8.,4.8,1.,4.8,2.,4.8
1979-07-15 12:15:21.720 ,3,0,0.,4.8,12.,4.8,0.,4.8,2.,4.8
1979-07-15 12:15:26.520 ,3,0,0.,4.8,9.,4.8,4.,4.8,5.,4.8
1979-07-15 12:15:31.320 ,3,0,0.,4.8,9.,4.8,0.,4.8,0.,4.8
1979-07-15 12:15:36.120 ,3,0,0.,4.8,6.,4.8,3.,4.8,3.,4.8
1979-07-15 12:15:40.920 ,3,0,0.,4.8,4.,4.8,3.,4.8,4.,4.8
1979-07-15 12:15:45.720 ,3,0,0.,4.8,9.,4.8,3.,4.8,4.,4.8
1979-07-15 12:15:50.520 ,3,0,0.,4.8,8.,4.8,1.,4.8,2.,4.8
1979-07-15 12:15:55.320 ,3,0,0.,4.8,8.,4.8,3.,4.8,3.,4.8
1979-07-15 12:16:00.120 ,4,0,0.,4.8,4.,4.8,3.,4.8,1.,4.8
1979-07-15 12:16:04.920 ,4,0,0.,4.8,10.,4.8,4.,4.8,4.,4.8
1979-07-15 12:16:09.720 ,4,0,0.,4.8,7.,4.8,3.,4.8,3.,4.8
1979-07-15 12:16:14.520 ,4,0,0.,4.8,10.,4.8,5.,4.8,0.,4.8
1979-07-15 12:16:19.320 ,4,0,0.,4.8,7.,4.8,3.,4.8,0.,4.8
1979-07-15 12:16:24.120 ,4,0,0.,4.8,5.,4.8,1.,4.8,2.,4.8
1979-07-15 12:16:28.920 ,4,0,0.,4.8,6.,4.8,2.,4.8,4.,4.8
1979-07-15 12:16:33.720 ,4,0,0.,4.8,11.,4.8,2.,4.8,2.,4.8
1979-07-15 12:16:38.520 ,4,0,0.,4.8,9.,4.8,1.,4.8,3.,4.8
1979-07-15 12:16:43.320 ,4,0,0.,4.8,7.,4.8,3.,4.8,1.,4.8
1979-07-15 12:16:48.120 ,5,0,0.,4.8,4.,4.8,2.,4.8,3.,4.8
1979-07-15 12:16:52.920 ,5,0,0.,4.8,9.,4.8,5.,4.8,1.,4.8
1979-07-15 12:16:57.720 ,5,0,0.,4.8,7.,4.8,2.,4.8,3.,4.8
1979-07-15 12:17:02.520 ,5,0,0.,4.8,14.,4.8,4.,4.8,4.,4.8
1979-07-15 12:17:07.320 ,5,0,0.,4.8,7.,4.8,2.,4.8,3.,4.8
1979-07-15 12:17:12.120 ,5,0,0.,4.8,3.,4.8,2.,4.8,5.,4.8
1979-07-15 12:17:16.920 ,5,0,0.,4.8,7.,4.8,1.,4.8,0.,4.8
1979-07-15 12:17:21.720 ,5,0,0.,4.8,11.,4.8,4.,4.8,2.,4.8
1979-07-15 12:17:26.520 ,5,0,0.,4.8,9.,4.8,4.,4.8,4.,4.8
1979-07-15 12:17:31.320 ,5,0,0.,4.8,11.,4.8,0.,4.8,2.,4.8
1979-07-15 12:17:36.120 ,6,0,0.,4.8,9.,4.8,1.,4.8,1.,4.8
1979-07-15 12:17:40.920 ,6,0,0.,4.8,7.,4.8,1.,4.8,2.,4.8
1979-07-15 12:17:45.720 ,6,0,0.,4.8,7.,4.8,1.,4.8,6.,4.8
1979-07-15 12:17:50.520 ,6,0,0.,4.8,7.,4.8,2.,4.8,2.,4.8
1979-07-15 12:17:55.320 ,6,0,0.,4.8,10.,4.8,2.,4.8,7.,4.8
1979-07-15 12:18:00.120 ,6,0,0.,4.8,9.,4.8,1.,4.8,5.,4.8
1979-07-15 12:18:04.920 ,6,0,0.,4.8,6.,4.8,1.,4.8,1.,4.8
1979-07-15 12:18:09.720 ,6,0,0.,4.8,9.,4.8,3.,4.8,2.,4.8
1979-07-15 12:18:14.520 ,6,0,0.,4.8,11.,4.8,2.,4.8,4.,4.8
1979-07-15 12:18:19.320 ,6,0,0.,4.8,6.,4.8,3.,4.8,3.,4.8
1979-07-15 12:18:24.120 ,7,0,0.,4.8,7.,4.8,5.,4.8,3.,4.8
1979-07-15 12:18:28.920 ,7,0,0.,4.8,8.,4.8,4.,4.8,2.,4.8
1979-07-15 12:18:33.720 ,7,0,0.,4.8,3.,4.8,0.,4.8,0.,4.8
1979-07-15 12:18:38.520 ,7,0,0.,4.8,1.,4.8,0.,4.8,0.,4.8
1979-07-15 12:18:43.320 ,7,0,0.,4.8,0.,4.8,0.,4.8,0.,4.8
1979-07-15 12:18:48.120 ,7,0,0.,4.8,1.,4.8,0.,4.8,0.,4.8
1979-07-15 12:18:52.920 ,7,0,0.,4.8,1.,4.8,0.,4.8,0.,4.8
1979-07-15 12:18:57.720 ,7,0,0.,4.8,1.,4.8,0.,4.8,1.,4.8
1979-07-15 12:19:02.520 ,7,0,0.,4.8,0.,4.8,0.,4.8,0.,4.8
1979-07-15 12:19:07.320 ,7,0,0.,4.8,0.,4.8,0.,4.8,0.,4.8
1979-07-15 12:19:12.120 ,3,1,0.,4.8,2.,4.8,1.,4.8,1.,4.8
1979-07-15 12:19:16.920 ,3,1,0.,4.8,6.,4.8,2.,4.8,3.,4.8
1979-07-15 12:19:21.720 ,3,1,0.,4.8,11.,4.8,1.,4.8,1.,4.8
1979-07-15 12:19:26.520 ,3,1,0.,4.8,3.,4.8,3.,4.8,0.,4.8
1979-07-15 12:19:31.320 ,3,1,0.,4.8,13.,4.8,3.,4.8,3.,4.8
1979-07-15 12:19:36.120 ,0,1,0.,4.8,10.,4.8,0.,4.8,3.,4.8
1979-07-15 12:19:40.920 ,0,1,0.,4.8,7.,4.8,0.,4.8,1.,4.8
1979-07-15 12:19:45.720 ,0,1,0.,4.8,6.,4.8,2.,4.8,2.,4.8
1979-07-15 12:19:50.520 ,0,1,0.,4.8,5.,4.8,1.,4.8,2.,4.8
1979-07-15 12:19:55.320 ,0,1,0.,4.8,10.,4.8,2.,4.8,5.,4.8
1979-07-15 12:20:00.120 ,4,1,0.,4.8,8.,4.8,4.,4.8,2.,4.8
1979-07-15 12:20:04.920 ,4,1,0.,4.8,8.,4.8,3.,4.8,5.,4.8
1979-07-15 12:20:09.720 ,4,1,0.,4.8,9.,4.8,3.,4.8,2.,4.8
1979-07-15 12:20:14.520 ,4,1,0.,4.8,11.,4.8,3.,4.8,2.,4.8
1979-07-15 12:20:19.320 ,4,1,0.,4.8,13.,4.8,1.,4.8,2.,4.8
1979-07-15 12:20:24.120 ,7,1,0.,4.8,7.,4.8,1.,4.8,3.,4.8
1979-07-15 12:20:28.920 ,7,1,0.,4.8,2.,4.8,4.,4.8,3.,4.8
1979-07-15 12:20:33.720 ,7,1,0.,4.8,7.,4.8,1.,4.8,2.,4.8
1979-07-15 12:20:38.520 ,7,1,0.,4.8,0.,4.8,1.,4.8,0.,4.8
1979-07-15 12:20:43.320 ,7,1,0.,4.8,0.,4.8,0.,4.8,0.,4.8
1979-07-15 12:20:48.120 ,3,1,0.,4.8,2.,4.8,2.,4.8,0.,4.8
1979-07-15 12:20:52.920 ,3,1,0.,4.8,7.,4.8,2.,4.8,1.,4.8
1979-07-15 12:20:57.720 ,3,1,0.,4.8,5.,4.8,1.,4.8,2.,4.8
1979-07-15 12:21:02.520 ,3,1,0.,4.8,7.,4.8,2.,4.8,2.,4.8
1979-07-15 12:21:07.320 ,3,1,0.,4.8,6.,4.8,3.,4.8,0.,4.8
1979-07-15 12:21:12.120 ,0,1,0.,4.8,4.,4.8,4.,4.8,1.,4.8
1979-07-15 12:21:16.920 ,0,1,0.,4.8,7.,4.8,2.,4.8,0.,4.8
1979-07-15 12:21:21.720 ,0,1,0.,4.8,9.,4.8,1.,4.8,4.,4.8
1979-07-15 12:21:26.520 ,0,1,0.,4.8,6.,4.8,5.,4.8,2.,4.8
1979-07-15 12:21:31.320 ,0,1,0.,4.8,7.,4.8,1.,4.8,0.,4.8
1979-07-15 12:21:36.120 ,4,1,0.,4.8,3.,4.8,3.,4.8,0.,4.8
1979-07-15 12:21:40.920 ,4,1,0.,4.8,5.,4.8,1.,4.8,2.,4.8
1979-07-15 12:21:45.720 ,4,1,0.,4.8,5.,4.8,2.,4.8,1.,4.8
1979-07-15 12:21:50.520 ,4,1,0.,4.8,8.,4.8,1.,4.8,1.,4.8
1979-07-15 12:21:55.320 ,4,1,0.,4.8,7.,4.8,3.,4.8,4.,4.8
1979-07-15 12:22:00.120 ,7,1,0.,4.8,7.,4.8,2.,4.8,2.,4.8
1979-07-15 12:22:04.920 ,7,1,0.,4.8,4.,4.8,3.,4.8,6.,4.8
1979-07-15 12:22:09.720 ,7,1,0.,4.8,5.,4.8,0.,4.8,2.,4.8
1979-07-15 12:22:14.520 ,7,1,0.,4.8,2.,4.8,0.,4.8,0.,4.8
1979-07-15 12:22:19.320 ,7,1,0.,4.8,1.,4.8,0.,4.8,0.,4.8
1979-07-15 12:22:24.120 ,0,0,0.,4.8,2.,4.8,0.,4.8,0.,4.8
1979-07-15 12:22:28.920 ,0,0,0.,4.8,10.,4.8,2.,4.8,2.,4.8
1979-07-15 12:22:33.720 ,0,0,0.,4.8,7.,4.8,2.,4.8,2.,4.8
1979-07-15 12:22:38.520 ,0,0,0.,4.8,7.,4.8,1.,4.8,1.,4.8
1979-07-15 12:22:43.320 ,0,0,0.,4.8,7.,4.8,5.,4.8,2.,4.8
1979-07-15 12:22:48.120 ,0,1,0.,4.8,8.,4.8,1.,4.8,3.,4.8
1979-07-15 12:22:52.920 ,0,1,0.,4.8,9.,4.8,0.,4.8,1.,4.8
1979-07-15 12:22:57.720 ,0,1,0.,4.8,10.,4.8,1.,4.8,3.,4.8
1979-07-15 12:23:02.520 ,0,1,0.,4.8,3.,4.8,1.,4.8,1.,4.8
1979-07-15 12:23:07.320 ,0,1,0.,4.8,4.,4.8,3.,4.8,3.,4.8
1979-07-15 12:23:12.120 ,4,1,0.,4.8,8.,4.8,3.,4.8,5.,4.8
1979-07-15 12:23:16.920 ,4,1,0.,4.8,14.,4.8,3.,4.8,2.,4.8
1979-07-15 12:23:21.720 ,4,1,0.,4.8,2.,4.8,1.,4.8,1.,4.8
1979-07-15 12:23:26.520 ,4,1,0.,4.8,8.,4.8,3.,4.8,3.,4.8
1979-07-15 12:23:31.320 ,4,1,0.,4.8,7.,4.8,1.,4.8,1.,4.8
1979-07-15 12:23:36.120 ,7,1,0.,4.8,6.,4.8,1.,4.8,5.,4.8
1979-07-15 12:23:40.920 ,7,1,0.,4.8,8.,4.8,3.,4.8,2.,4.8
1979-07-15 12:23:45.720 ,7,1,0.,4.8,7.,4.8,2.,4.8,3.,4.8
1979-07-15 12:23:50.520 ,7,1,0.,4.8,5.,4.8,1.,4.8,0.,4.8
1979-07-15 12:23:55.320 ,7,1,0.,4.8,1.,4.8,0.,4.8,0.,4.8
1979-07-15 12:24:00.120 ,3,1,0.,4.8,2.,4.8,2.,4.8,0.,4.8
1979-07-15 12:24:04.920 ,3,1,0.,4.8,8.,4.8,2.,4.8,1.,4.8
1979-07-15 12:24:09.720 ,3,1,0.,4.8,8.,4.8,1.,4.8,3.,4.8
1979-07-15 12:24:14.520 ,3,1,0.,4.8,9.,4.8,5.,4.8,6.,4.8
1979-07-15 12:24:19.320 ,3,1,0.,4.8,9.,4.8,3.,4.8,4.,4.8
1979-07-15 12:24:24.120 ,0,1,0.,4.8,6.,4.8,4.,4.8,1.,4.8
1979-07-15 12:24:28.920 ,0,1,0.,4.8,13.,4.8,2.,4.8,2.,4.8
1979-07-15 12:24:33.720 ,0,1,0.,4.8,5.,4.8,1.,4.8,1.,4.8
1979-07-15 12:24:38.520 ,0,1,0.,4.8,4.,4.8,3.,4.8,1.,4.8
1979-07-15 12:24:43.320 ,0,1,0.,4.8,7.,4.8,1.,4.8,2.,4.8
1979-07-15 12:24:48.120 ,4,1,0.,4.8,5.,4.8,5.,4.8,1.,4.8
1979-07-15 12:24:52.920 ,4,1,0.,4.8,4.,4.8,0.,4.8,1.,4.8
1979-07-15 12:24:57.720 ,4,1,0.,4.8,7.,4.8,1.,4.8,4.,4.8
1979-07-15 12:25:02.520 ,4,1,0.,4.8,3.,4.8,1.,4.8,1.,4.8
1979-07-15 12:25:07.320 ,4,1,0.,4.8,8.,4.8,4.,4.8,5.,4.8
1979-07-15 12:25:12.120 ,7,1,0.,4.8,3.,4.8,2.,4.8,0.,4.8
1979-07-15 12:25:16.920 ,7,1,0.,4.8,6.,4.8,3.,4.8,2.,4.8
1979-07-15 12:25:21.720 ,7,1,0.,4.8,9.,4.8,3.,4.8,2.,4.8
1979-07-15 12:25:26.520 ,7,1,0.,4.8,2.,4.8,0.,4.8,0.,4.8
1979-07-15 12:25:31.320 ,7,1,0.,4.8,1.,4.8,0.,4.8,0.,4.8
1979-07-15 12:25:36.120 ,3,1,0.,4.8,2.,4.8,1.,4.8,1.,4.8
1979-07-15 12:25:40.920 ,3,1,0.,4.8,7.,4.8,4.,4.8,0.,4.8
1979-07-15 12:25:45.720 ,3,1,0.,4.8,8.,4.8,1.,4.8,1.,4.8
1979-07-15 12:25:50.520 ,3,1,0.,4.8,8.,4.8,3.,4.8,3.,4.8
1979-07-15 12:25:55.320 ,3,1,0.,4.8,12.,4.8,0.,4.8,0.,4.8
1979-07-15 12:26:00.120 ,0,1,0.,4.8,11.,4.8,3.,4.8,2.,4.8
1979-07-15 12:26:04.920 ,0,1,0.,4.8,4.,4.8,4.,4.8,2.,4.8
1979-07-15 12:26:09.720 ,0,1,0.,4.8,5.,4.8,4.,4.8,5.,4.8
1979-07-15 12:26:14.520 ,0,1,0.,4.8,7.,4.8,2.,4.8,0.,4.8
1979-07-15 12:26:19.320 ,0,1,0.,4.8,7.,4.8,0.,4.8,2.,4.8
1979-07-15 12:26:24.120 ,4,1,0.,4.8,9.,4.8,0.,4.8,4.,4.8
1979-07-15 12:26:28.920 ,4,1,0.,4.8,8.,4.8,1.,4.8,2.,4.8
1979-07-15 12:26:33.720 ,4,1,0.,4.8,4.,4.8,1.,4.8,1.,4.8
1979-07-15 12:26:38.520 ,4,1,0.,4.8,5.,4.8,2.,4.8,3.,4.8
1979-07-15 12:26:43.320 ,4,1,0.,4.8,5.,4.8,2.,4.8,2.,4.8
1979-07-15 12:26:48.120 ,7,1,0.,4.8,7.,4.8,2.,4.8,3.,4.8
1979-07-15 12:26:52.920 ,7,1,0.,4.8,7.,4.8,2.,4.8,3.,4.8
1979-07-15 12:26:57.720 ,7,1,0.,4.8,5.,4.8,2.,4.8,1.,4.8
1979-07-15 12:27:02.520 ,7,1,0.,4.8,2.,4.8,0.,4.8,1.,4.8
1979-07-15 12:27:07.320 ,7,1,0.,4.8,0.,4.8,0.,4.8,1.,4.8
1979-07-15 12:27:12.120 ,3,1,0.,4.8,4.,4.8,0.,4.8,1.,4.8
1979-07-15 12:27:16.920 ,3,1,0.,4.8,7.,4.8,4.,4.8,3.,4.8
1979-07-15 12:27:21.720 ,3,1,0.,4.8,7.,4.8,6.,4.8,7.,4.8
1979-07-15 12:27:26.520 ,3,1,0.,4.8,7.,4.8,4.,4.8,1.,4.8
1979-07-15 12:27:31.320 ,3,1,0.,4.8,11.,4.8,5.,4.8,2.,4.8
1979-07-15 12:27:36.120 ,0,1,0.,4.8,16.,4.8,2.,4.8,0.,4.8
1979-07-15 12:27:40.920 ,0,1,0.,4.8,6.,4.8,2.,4.8,3.,4.8
1979-07-15 12:27:45.720 ,0,1,0.,4.8,3.,4.8,1.,4.8,1.,4.8
1979-07-15 12:27:50.520 ,0,1,0.,4.8,9.,4.8,2.,4.8,2.,4.8
1979-07-15 12:27:55.320 ,0,1,0.,4.8,2.,4.8,4.,4.8,0.,4.8
1979-07-15 12:28:00.120 ,4,1,0.,4.8,7.,4.8,1.,4.8,3.,4.8
1979-07-15 12:28:04.920 ,4,1,0.,4.8,7.,4.8,1.,4.8,4.,4.8
1979-07-15 12:28:09.720 ,4,1,0.,4.8,13.,4.8,3.,4.8,4.,4.8
1979-07-15 12:28:14.520 ,4,1,0.,4.8,7.,4.8,0.,4.8,0.,4.8
1979-07-15 12:28:19.320 ,4,1,0.,4.8,4.,4.8,4.,4.8,4.,4.8
1979-07-15 12:28:24.120 ,7,1,0.,4.8,6.,4.8,2.,4.8,4.,4.8
1979-07-15 12:28:28.920 ,7,1,0.,4.8,6.,4.8,3.,4.8,0.,4.8
1979-07-15 12:28:33.720 ,7,1,0.,4.8,7.,4.8,0.,4.8,1.,4.8
1979-07-15 12:28:38.520 ,7,1,0.,4.8,2.,4.8,1.,4.8,0.,4.8
1979-07-15 12:28:43.320 ,7,1,0.,4.8,2.,4.8,0.,4.8,0.,4.8
1979-07-15 12:28:48.120 ,3,1,0.,4.8,0.,4.8,0.,4.8,0.,4.8
1979-07-15 12:28:52.920 ,3,1,0.,4.8,10.,4.8,0.,4.8,4.,4.8
1979-07-15 12:28:57.720 ,3,1,0.,4.8,5.,4.8,1.,4.8,4.,4.8
1979-07-15 12:29:02.520 ,3,1,0.,4.8,5.,4.8,2.,4.8,3.,4.8
1979-07-15 12:29:07.320 ,3,1,0.,4.8,6.,4.8,5.,4.8,2.,4.8
1979-07-15 12:29:12.120 ,0,1,0.,4.8,8.,4.8,0.,4.8,3.,4.8
1979-07-15 12:29:16.920 ,0,1,0.,4.8,7.,4.8,2.,4.8,6.,4.8
1979-07-15 12:29:21.720 ,0,1,0.,4.8,4.,4.8,1.,4.8,3.,4.8
1979-07-15 12:29:26.520 ,0,1,0.,4.8,12.,4.8,1.,4.8,2.,4.8
1979-07-15 12:29:31.320 ,0,1,0.,4.8,9.,4.8,2.,4.8,0.,4.8
1979-07-15 12:29:36.120 ,0,0,0.,4.8,7.,4.8,2.,4.8,2.,4.8
1979-07-15 12:29:40.920 ,0,0,0.,4.8,6.,4.8,4.,4.8,4.,4.8
1979-07-15 12:29:45.720 ,0,0,0.,4.8,11.,4.8,4.,4.8,3.,4.8
1979-07-15 12:29:50.520 ,0,0,0.,4.8,14.,4.8,4.,4.8,3.,4.8
1979-07-15 12:29:55.320 ,0,0,0.,4.8,5.,4.8,3.,4.8,2.,4.8
1979-07-15 12:30:00.120 ,0,0,0.,4.8,4.,4.8,1.,4.8,4.,4.8
1979-07-15 12:30:04.920 ,0,0,0.,4.8,8.,4.8,4.,4.8,2.,4.8
1979-07-15 12:30:09.720 ,0,0,0.,4.8,5.,4.8,0.,4.8,4.,4.8
1979-07-15 12:30:14.520 ,0,0,0.,4.8,2.,4.8,0.,4.8,1.,4.8
1979-07-15 12:30:19.320 ,0,0,0.,4.8,1.,4.8,0.,4.8,0.,4.8
1979-07-15 12:30:24.120 ,5,0,0.,4.8,1.,4.8,0.,4.8,1.,4.8
1979-07-15 12:30:28.920 ,5,0,0.,4.8,5.,4.8,0.,4.8,4.,4.8
1979-07-15 12:30:33.720 ,5,0,0.,4.8,8.,4.8,2.,4.8,2.,4.8
1979-07-15 12:30:38.520 ,5,0,0.,4.8,6.,4.8,4.,4.8,0.,4.8
1979-07-15 12:30:43.320 ,5,0,0.,4.8,4.,4.8,1.,4.8,0.,4.8
1979-07-15 12:30:48.120 ,5,0,0.,4.8,4.,4.8,4.,4.8,4.,4.8
1979-07-15 12:30:52.920 ,5,0,0.,4.8,5.,4.8,2.,4.8,0.,4.8
1979-07-15 12:30:57.720 ,5,0,0.,4.8,6.,4.8,1.,4.8,0.,4.8
1979-07-15 12:31:02.520 ,5,0,0.,4.8,5.,4.8,1.,4.8,5.,4.8
1979-07-15 12:31:07.320 ,5,0,0.,4.8,14.,4.8,1.,4.8,2.,4.8
1979-07-15 12:31:12.120 ,4,0,0.,4.8,5.,4.8,2.,4.8,3.,4.8
1979-07-15 12:31:16.920 ,4,0,0.,4.8,6.,4.8,3.,4.8,3.,4.8
1979-07-15 12:31:21.720 ,4,0,0.,4.8,9.,4.8,3.,4.8,2.,4.8
1979-07-15 12:31:26.520 ,4,0,0.,4.8,4.,4.8,2.,4.8,3.,4.8
1979-07-15 12:31:31.320 ,4,0,0.,4.8,9.,4.8,0.,4.8,2.,4.8
1979-07-15 12:31:36.120 ,4,0,0.,4.8,3.,4.8,2.,4.8,0.,4.8
1979-07-15 12:31:40.920 ,4,0,0.,4.8,3.,4.8,2.,4.8,0.,4.8
1979-07-15 12:31:45.720 ,4,0,0.,4.8,6.,4.8,3.,4.8,2.,4.8
1979-07-15 12:31:50.520 ,4,0,0.,4.8,8.,4.8,0.,4.8,3.,4.8
1979-07-15 12:31:55.320 ,4,0,0.,4.8,3.,4.8,2.,4.8,1.,4.8
1979-07-15 12:32:00.120 ,3,0,0.,4.8,6.,4.8,2.,4.8,3.,4.8
1979-07-15 12:32:04.920 ,3,0,0.,4.8,5.,4.8,3.,4.8,2.,4.8
1979-07-15 12:32:09.720 ,3,0,0.,4.8,9.,4.8,3.,4.8,0.,4.8
1979-07-15 12:32:14.520 ,3,0,0.,4.8,12.,4.8,0.,4.8,1.,4.8
1979-07-15 12:32:19.320 ,3,0,0.,4.8,6.,4.8,1.,4.8,0.,4.8
1979-07-15 12:32:24.120 ,3,0,0.,4.8,5.,4.8,2.,4.8,2.,4.8
1979-07-15 12:32:28.920 ,3,0,0.,4.8,4.,4.8,2.,4.8,3.,4.8
1979-07-15 12:32:33.720 ,3,0,0.,4.8,8.,4.8,2.,4.8,5.,4.8
1979-07-15 12:32:38.520 ,3,0,0.,4.8,7.,4.8,0.,4.8,3.,4.8
1979-07-15 12:32:43.320 ,3,0,0.,4.8,9.,4.8,2.,4.8,2.,4.8
1979-07-15 12:32:48.120 ,2,0,0.,4.8,13.,4.8,1.,4.8,1.,4.8